Location: Gajan
(43.0218°N, 1.1244°E)
Time: 02:32:46
(UTC+00:00)

Cosmos 2315 Rocket - Pass Details

Date: 22 April 2021
Orbit: 967 x 1001 km, 82.9° (Epoch: 15 May)

Event Time Altitude Azimuth Distance (km) Brightness Sun altitude
Exits shadow 23:16:01 62° 329° (NNW) 1,116 4.4 -33.8°
Drops below altitude 10° 23:21:28 10° 4° (N) 2,776 7.2 -34.0°
Sets 23:24:02 0° 6° (N) 3,732 8.0 -34.0°
